Location: Goettingen
(51.5300°N, 9.9433°E)
Time: 10:43:27
(UTC+01:00)

ISS - Pass Details

Date: 26 March 2023
Orbit: 414 x 423 km, 51.6° (Epoch: 20 March)

Event Time Altitude Azimuth Distance (km) Brightness Sun altitude
Rises 21:17:11 0° 281° (W) 2,360 1.7 -15.0°
Reaches altitude 10° 21:19:17 10° 279° (W) 1,494 0.3 -15.3°
Maximum altitude 21:22:37 73° 195° (SSW) 439 -3.8 -15.7°
Enters shadow 21:23:40 40° 120° (ESE) 626 -3.4 -15.9°
